Theta_e
339 340 341 341 340 339 339 340 339 337 336 339 341 341 341 339 338 338 336 336 336 337 337 337 335 336 336 337 336 336 336 337 337 336 337 336 335 335 334 334 334 334 334 334 333 332 331 329 327 323 320 316
336 339 340 340 339 339 340 341 341 341 341 340 340 340 341 340 339 337 337 338 338 338 337 336 336 338 336 335 335 335 335 335 336 336 335 335 334 334 333 333 333 333 332 332 331 331 330 329 326 323 321 313
332 333 336 337 337 338 339 340 339 339 338 337 338 337 336 336 335 335 336 336 336 336 335 333 331 335 337 335 336 335 335 335 336 335 335 334 334 334 333 333 333 332 331 330 329 329 327 323 320 319 316 312
326 330 330 334 335 335 336 336 335 334 332 330 330 331 330 328 327 327 327 327 329 331 334 331 327 331 335 335 334 334 334 335 335 335 334 334 334 333 332 331 330 330 330 329 328 326 324 320 317 312 310 311
331 329 328 328 329 331 332 332 331 330 324 322 321 322 321 323 322 322 324 324 323 323 322 324 326 331 336 335 334 334 334 334 334 335 334 334 334 333 329 323 322 322 326 327 325 323 319 315 312 311 311 311
331 330 328 328 329 326 325 325 323 321 320 325 316 319 319 318 321 320 318 321 328 321 322 323 325 329 334 335 334 335 334 333 334 334 335 334 334 332 326 318 312 313 317 320 321 318 315 310 309 311 310 310
331 331 329 327 328 328 323 324 319 319 319 316 316 314 314 316 316 316 317 318 320 320 322 322 325 329 330 332 331 334 333 333 333 334 334 334 331 328 320 314 311 313 311 311 315 314 311 307 308 311 312 310
330 330 326 325 328 327 322 319 319 318 317 315 314 314 314 315 314 314 315 325 326 324 318 319 322 325 326 327 325 326 324 325 326 326 327 326 323 318 312 312 311 312 313 313 312 311 309 307 306 308 309 310
329 330 326 323 326 328 326 322 317 317 316 315 315 314 315 314 314 315 316 317 318 318 318 318 319 319 318 317 318 320 321 320 318 315 314 312 313 312 311 312 312 312 314 313 311 310 308 308 306 307 307 309
330 329 328 325 325 326 327 325 322 319 317 316 317 316 315 314 315 315 316 316 317 317 317 319 318 317 317 317 318 321 321 319 317 315 312 311 311 311 309 310 310 308 308 310 309 309 308 309 310 308 307 307
330 329 329 326 323 325 326 326 325 324 321 319 318 317 315 317 314 313 315 314 314 317 316 318 316 317 315 317 317 319 319 318 315 313 314 312 311 309 309 309 308 309 309 306 308 309 308 307 307 309 309 308
329 329 329 328 324 324 323 324 325 325 324 321 320 318 318 317 317 317 314 314 312 313 315 317 316 316 317 316 316 319 317 317 315 314 313 312 312 310 307 307 308 307 306 306 306 307 308 308 309 308 307 308
329 329 329 329 327 325 322 323 324 323 321 321 320 320 318 316 317 315 315 314 315 311 315 314 312 315 317 316 315 317 317 316 315 313 312 312 310 307 307 306 309 307 308 306 306 307 310 309 309 310 308 308
328 328 328 328 327 327 324 322 321 318 320 320 319 320 319 318 318 317 317 317 313 314 314 312 311 311 313 314 312 314 316 314 314 314 310 310 309 309 309 310 311 309 311 311 310 308 311 311 310 310 309 310
328 328 327 328 328 328 326 323 321 320 321 319 320 320 320 318 318 318 317 316 315 313 313 311 311 313 311 311 311 312 315 310 314 311 312 313 311 312 313 314 312 312 314 314 314 313 312 313 310 310 310 308
329 328 327 327 327 326 325 322 322 321 320 319 319 318 319 318 318 317 316 316 314 315 314 312 313 312 311 314 312 311 312 311 309 311 311 310 313 315 314 315 315 313 313 315 316 314 314 312 309 309 309 309
330 329 327 326 325 324 323 322 322 321 320 320 321 320 319 319 318 317 317 316 316 314 313 312 313 312 313 314 313 310 310 310 309 309 311 315 314 314 314 315 317 314 313 314 315 313 312 308 309 309 308 310
331 330 328 325 325 324 323 323 322 322 321 320 320 320 319 319 319 317 317 316 314 313 313 312 312 312 313 313 311 311 310 311 311 313 314 316 315 315 315 316 317 315 315 314 309 310 308 307 309 307 308 309
331 331 329 326 325 325 324 323 323 323 321 320 320 320 320 320 320 318 318 316 316 315 314 314 314 314 317 314 312 312 313 316 316 316 317 316 316 316 315 315 314 311 312 312 313 312 309 310 309 307 309 309
331 331 329 326 324 325 324 324 323 323 323 322 320 320 320 320 320 319 319 317 317 319 319 319 319 319 319 318 318 318 317 316 317 317 316 315 316 315 315 310 313 314 314 313 310 309 309 309 309 310 310 309
330 329 328 326 326 325 325 325 324 324 323 322 321 320 321 320 320 320 320 319 320 322 320 320 320 320 320 319 320 319 318 317 317 316 315 315 314 312 309 310 314 316 314 310 309 308 310 312 312 312 311 309
330 330 328 326 326 323 325 325 325 324 323 323 322 321 321 321 322 322 322 322 323 324 323 322 321 320 320 321 320 319 318 318 318 317 316 316 315 313 313 313 313 313 310 307 309 311 313 314 313 311 309 308
329 329 327 326 326 325 324 324 324 324 323 323 322 322 322 322 323 324 325 325 324 324 324 323 323 322 320 319 318 318 316 314 314 315 313 314 314 312 311 311 312 310 306 310 311 312 313 312 311 309 307 306
328 328 327 326 325 325 325 326 324 323 323 323 322 321 321 321 323 325 325 326 326 326 324 323 320 321 320 320 318 318 317 312 312 313 310 310 309 310 309 309 311 307 307 307 308 308 310 309 308 307 308 308
328 327 327 327 327 326 327 327 326 325 325 325 325 324 324 324 325 325 325 324 325 326 323 325 324 323 321 319 318 317 317 319 318 314 312 310 307 311 313 312 309 306 305 306 310 308 308 309 308 307 308 307
327 329 329 328 328 328 328 327 326 327 327 328 328 328 327 327 327 326 325 324 324 324 323 323 322 321 322 322 319 316 314 317 314 314 312 313 314 311 314 312 307 306 309 309 309 310 310 308 307 308 306 303
326 326 326 327 325 329 325 325 328 328 326 326 327 328 329 329 328 327 325 325 324 325 324 324 324 323 324 322 320 319 317 315 316 317 315 314 316 313 309 311 307 309 313 312 308 309 307 303 307 305 301 296
326 325 325 324 321 322 326 322 317 321 319 323 325 327 328 329 329 328 327 326 325 324 325 325 325 325 322 320 314 316 317 318 319 317 315 314 313 314 314 309 308 310 312 313 311 307 306 306 303 303 301 304
323 321 318 319 316 316 318 317 316 319 323 325 323 325 325 326 327 328 328 327 326 324 325 325 325 322 320 317 318 319 320 320 318 317 318 317 314 314 315 313 312 310 310 311 312 312 306 304 301 302 305 306
323 322 324 322 323 321 322 323 321 321 323 322 322 324 323 322 325 325 325 326 327 326 324 325 325 323 321 320 320 320 320 320 319 318 317 318 317 315 315 315 313 312 309 309 309 311 312 310 307 305 305 305
321 323 323 324 325 325 324 324 325 322 320 324 321 321 322 324 321 324 325 324 325 325 324 324 325 322 321 319 320 317 320 319 318 317 317 314 314 315 313 313 311 311 310 306 306 308 309 309 307 307 304 301
Wind_Speed
7 8 9 9 9 7 5 5 8 8 8 9 9 10 11 11 10 10 9 9 9 10 9 9 7 8 9 9 9 9 8 9 9 9 9 9 10 11 12 12 12 11 9 7 6 6 6 5 5 4 4 3
7 7 8 8 7 6 6 7 8 7 9 10 8 7 8 10 9 10 9 8 9 9 9 8 7 6 9 9 8 8 8 8 8 7 7 8 10 10 11 11 11 11 10 8 6 5 5 4 4 4 4 2
5 8 8 8 7 7 8 8 8 7 7 8 8 7 8 9 8 8 9 9 8 7 7 7 7 7 6 8 8 8 7 7 6 6 6 8 9 9 10 10 11 10 10 9 7 6 5 4 4 5 3 2
4 6 8 7 7 8 7 7 8 7 7 8 8 8 8 8 7 7 6 9 6 7 7 6 5 6 6 6 7 7 6 6 5 5 6 7 8 9 9 9 9 9 9 9 8 6 5 4 4 2 2 2
3 3 7 6 7 8 7 7 7 8 7 7 7 7 7 7 5 4 4 4 4 5 4 5 5 5 4 6 6 6 5 4 4 4 5 6 7 8 8 8 8 8 8 8 7 7 5 4 2 2 2 2
2 2 3 4 4 3 4 5 6 5 4 4 3 5 4 3 3 3 3 3 4 3 3 3 4 5 5 6 5 4 4 4 4 4 4 5 7 8 7 7 6 5 6 7 6 6 5 3 1 1 2 3
3 3 2 2 4 3 3 4 4 4 3 3 3 3 3 3 3 3 2 2 2 2 3 2 4 5 5 5 4 4 4 3 3 5 5 7 7 7 6 4 4 4 4 4 5 5 4 2 2 1 1 2
3 2 1 1 3 3 2 2 3 3 3 3 3 3 3 3 3 2 2 3 4 3 2 3 4 5 6 6 7 7 5 6 8 8 7 7 6 4 3 3 4 4 4 5 3 4 4 3 3 3 2 2
4 3 1 2 2 3 3 2 1 2 3 2 3 3 3 3 2 2 2 1 1 1 1 1 1 2 2 2 2 4 2 3 3 4 3 4 3 3 3 4 4 4 5 4 4 4 3 3 3 3 3 3
4 3 4 2 3 3 3 2 2 2 2 2 2 2 2 3 3 2 2 1 1 1 1 1 1 1 1 1 1 2 1 1 2 2 2 3 3 3 2 2 2 2 2 3 4 3 3 4 4 3 3 3
4 4 3 3 3 4 4 3 4 3 3 3 3 3 2 4 3 2 2 1 1 1 0 1 1 1 1 0 0 1 0 1 1 1 1 2 2 2 3 3 3 4 3 1 2 3 3 3 4 4 4 4
6 5 4 5 4 4 5 4 5 5 4 3 4 3 3 3 4 4 4 3 2 2 0 2 1 1 1 1 0 1 1 0 1 1 1 1 2 2 2 3 4 4 3 3 1 3 4 4 4 4 4 4
6 6 5 5 4 5 4 4 5 4 4 4 4 3 3 3 4 2 2 3 3 2 2 2 1 1 1 1 1 1 2 1 2 2 1 1 2 2 3 2 3 3 4 3 1 2 5 5 4 5 4 4
6 6 6 7 6 6 4 5 4 4 4 4 4 4 3 4 4 4 4 4 3 4 4 3 1 2 3 3 2 2 3 2 2 3 2 2 2 3 3 4 3 2 4 5 4 3 4 5 5 5 4 5
7 6 6 6 6 5 6 5 5 4 4 4 4 4 4 4 4 4 4 4 4 3 3 3 3 5 2 3 4 3 4 2 3 2 3 4 3 3 4 4 2 2 4 4 5 3 4 5 4 5 4 4
6 7 6 6 6 6 6 4 5 5 4 5 4 3 3 3 4 4 4 4 4 5 5 5 5 3 3 5 3 4 3 2 2 3 3 3 3 3 2 4 3 2 2 4 5 4 5 4 5 5 5 5
7 6 6 6 7 6 6 6 5 5 6 5 4 5 4 4 4 5 5 5 5 5 5 5 5 4 5 5 3 2 3 3 2 2 3 4 2 2 2 3 5 2 4 4 5 4 6 4 5 4 5 5
7 7 6 6 6 5 6 5 6 6 5 5 5 5 4 5 5 5 5 5 4 5 4 4 4 5 5 5 4 3 3 3 3 3 3 3 0 3 2 4 5 5 5 5 4 5 3 3 4 5 6 6
8 7 6 6 5 5 6 6 6 5 5 5 5 5 5 5 5 5 5 5 5 5 4 4 4 5 6 3 3 3 3 3 2 3 3 1 3 3 4 4 5 3 5 6 6 5 5 6 5 4 6 6
8 7 6 6 6 5 5 5 6 5 6 6 5 5 5 5 5 5 5 5 4 4 4 4 4 5 4 3 3 3 2 3 4 4 4 5 4 3 5 3 4 3 5 4 5 5 6 6 4 5 6 6
7 6 6 6 6 7 6 6 6 5 5 5 5 5 5 5 5 5 5 5 5 5 4 4 4 3 4 3 3 3 3 3 3 2 2 4 2 2 4 3 6 7 4 4 4 5 6 6 5 6 5 6
8 7 7 6 6 6 7 7 6 5 4 5 5 5 6 5 6 6 6 6 6 5 4 4 4 4 3 4 4 3 3 4 3 3 3 4 4 4 4 5 6 6 5 3 5 6 6 6 5 6 6 6
7 6 6 5 6 6 6 5 4 4 4 5 5 5 6 6 6 6 6 6 6 6 6 5 5 4 3 3 3 3 3 3 3 3 3 4 4 1 2 3 5 5 3 5 6 6 6 6 6 6 6 6
6 6 7 7 4 5 6 4 4 4 5 5 5 5 5 5 5 5 6 6 7 6 5 5 5 6 4 5 4 3 3 4 4 5 3 4 4 4 3 4 5 3 4 4 4 6 7 5 6 6 6 5
8 7 6 6 8 8 5 5 5 6 5 5 6 6 6 5 5 4 5 5 4 6 6 7 7 6 3 3 3 4 6 4 3 3 3 1 1 2 3 4 2 2 2 2 5 2 3 5 4 6 7 4
8 9 8 7 7 5 5 5 6 6 5 7 6 7 7 6 6 5 5 5 4 5 3 3 3 4 5 5 4 4 3 2 3 2 2 2 2 2 3 4 1 2 1 2 1 4 6 2 4 6 3 3
10 7 7 7 5 7 5 5 7 7 6 6 7 7 8 7 6 5 4 4 5 5 4 4 3 4 5 4 4 4 4 3 4 4 3 3 3 3 2 4 1 1 3 3 1 2 2 4 8 3 2 2
9 8 7 6 5 5 6 5 4 5 4 5 5 5 5 6 7 5 5 4 4 4 4 4 5 6 4 5 4 4 4 5 5 4 3 3 4 3 3 1 1 2 4 3 0 3 1 2 1 6 1 7
8 6 5 4 2 3 2 0 3 4 5 5 4 4 5 4 4 6 6 6 6 6 6 5 6 4 4 4 4 4 5 5 4 3 4 4 3 4 4 2 1 2 1 1 0 0 2 2 1 1 4 7
9 9 9 7 7 7 6 7 6 7 7 5 4 4 3 4 5 4 4 6 7 8 6 7 6 7 6 5 3 3 2 2 2 2 3 4 4 4 4 3 0 0 1 1 1 1 0 2 2 4 2 2
9 9 9 11 12 11 10 10 8 5 4 5 4 4 5 4 3 4 5 5 5 4 5 4 5 3 2 2 3 3 3 3 3 2 2 2 3 3 2 3 2 1 0 1 2 1 1 1 0 1 1 2
Wind_Direction
109 115 117 120 124 125 131 116 103 123 134 101 98 113 113 118 111 107 107 101 88 84 85 82 88 99 101 102 99 98 103 101 97 87 78 73 74 76 78 77 72 71 70 71 74 77 75 69 61 49 52 51
109 112 115 112 108 110 80 87 96 86 93 95 88 88 98 100 105 110 106 94 91 85 72 59 48 82 111 108 109 109 102 95 91 82 75 73 72 72 73 74 71 63 60 60 61 60 72 66 66 51 45 50
117 115 111 110 111 95 95 98 94 96 96 102 95 79 86 88 91 96 97 94 91 87 75 65 49 39 70 101 98 99 101 103 92 80 72 69 65 62 61 62 63 61 55 50 52 47 55 62 57 53 34 32
113 117 113 114 114 107 108 108 107 105 104 102 101 100 96 94 88 86 93 97 89 85 79 71 60 52 71 101 103 103 101 97 83 75 62 60 59 56 51 48 49 51 51 46 40 44 50 46 40 27 16 15
93 105 111 111 117 119 117 118 110 105 101 99 101 101 99 95 94 97 100 95 97 87 88 84 66 49 58 98 103 98 99 82 75 60 53 50 51 52 46 43 41 40 44 40 36 30 27 42 34 7 9 0
130 107 89 110 113 112 115 113 112 109 112 106 100 101 97 98 104 102 100 104 106 101 98 91 84 75 75 78 78 94 96 90 59 43 41 38 44 45 44 38 30 21 20 38 34 25 20 24 18 15 2 351
149 148 113 103 107 106 126 127 120 124 113 118 114 96 93 90 88 96 97 101 107 109 105 103 104 92 83 78 68 88 90 71 42 26 36 36 36 39 36 37 29 17 13 17 23 20 16 18 2 342 349 335
162 164 116 134 135 110 133 123 135 128 131 133 131 122 108 101 95 81 66 56 74 79 59 43 49 64 71 62 48 42 41 28 31 26 32 26 30 25 25 23 26 15 15 8 11 21 14 2 7 358 322 314
180 177 125 158 144 157 149 153 142 140 137 146 144 139 125 120 106 91 68 59 45 47 61 42 26 38 45 43 52 35 42 19 10 18 359 356 10 27 8 13 10 16 1 5 0 7 8 359 350 349 339 313
170 152 189 169 169 168 173 162 169 170 160 164 173 155 130 113 105 99 83 74 72 58 55 95 63 43 37 47 61 39 43 14 8 2 2 4 356 344 354 13 359 18 37 337 346 350 350 353 338 333 320 312
167 193 189 183 179 172 188 179 187 186 194 192 181 168 151 136 134 126 119 118 105 164 66 179 173 113 41 72 70 54 48 348 359 355 352 357 344 322 1 346 346 344 345 350 325 327 326 328 318 309 299 307
192 194 191 189 186 195 186 181 199 200 200 190 188 180 181 169 159 161 157 173 170 209 157 229 236 133 188 208 251 87 319 259 290 300 341 328 326 349 355 352 324 333 326 330 349 327 308 310 303 291 290 289
190 191 195 187 191 195 186 194 199 197 186 198 195 187 182 169 162 158 164 180 205 145 205 247 237 202 223 242 223 160 248 232 240 273 241 299 302 325 320 327 315 334 313 311 315 320 307 303 300 302 302 288
188 192 196 193 192 194 184 207 196 183 196 200 190 199 187 183 178 182 185 199 180 171 213 221 234 225 238 240 213 186 228 213 218 251 272 285 298 310 305 309 295 333 313 311 310 305 297 299 292 292 288 291
198 190 197 193 195 191 202 201 191 194 201 201 202 201 186 186 187 181 185 188 184 194 200 206 207 226 224 253 236 212 239 208 221 242 244 258 268 274 280 278 281 302 303 301 303 286 289 284 301 291 288 282
196 197 199 190 189 200 199 187 199 199 198 210 203 194 193 188 189 183 190 182 184 190 195 205 205 214 206 234 229 213 239 249 232 230 249 254 256 268 280 286 284 245 264 290 288 301 287 285 289 289 295 297
200 197 194 190 197 196 187 193 193 201 205 206 201 191 193 194 189 189 187 193 191 189 196 199 202 211 223 233 223 210 221 241 242 250 268 266 246 284 291 292 286 256 233 257 272 281 277 320 301 305 310 300
198 199 197 196 198 190 184 193 196 205 201 198 199 192 194 195 193 193 195 184 196 186 188 196 204 215 238 231 210 207 198 218 216 240 253 261 282 254 240 268 264 269 284 279 276 272 311 317 293 307 304 290
202 199 198 197 199 195 191 194 200 206 196 196 201 187 197 196 198 199 195 192 182 189 187 191 208 217 234 212 194 200 202 203 197 210 249 260 261 272 258 261 293 304 285 283 296 313 329 301 301 303 285 294
202 200 199 200 201 198 197 197 203 202 202 202 192 190 199 199 201 200 199 189 180 182 193 198 207 223 224 198 189 201 184 180 213 209 215 221 202 256 281 326 294 265 262 289 307 303 297 287 294 290 290 289
204 194 196 198 200 203 199 202 207 205 201 196 194 196 205 201 200 203 197 191 187 180 179 192 206 220 207 185 182 183 179 200 216 216 269 304 291 186 253 293 281 279 284 298 286 292 289 286 292 284 286 287
201 200 196 199 202 200 203 207 206 204 190 200 202 194 206 203 198 199 198 193 186 184 175 188 197 205 189 173 169 162 170 212 197 208 196 252 231 195 211 257 265 281 300 304 295 281 278 291 282 280 287 278
202 200 205 205 203 205 212 213 211 196 196 202 201 200 205 198 198 198 197 196 188 190 176 180 215 230 223 179 180 179 192 211 219 223 211 218 268 258 235 256 270 269 290 292 284 284 288 288 284 285 276 275
200 199 201 206 206 216 212 205 204 203 204 196 201 203 197 194 197 196 198 195 189 192 171 186 204 216 211 206 184 190 220 237 215 225 215 239 231 282 303 233 247 237 255 277 279 280 281 271 280 284 274 283
197 200 205 213 211 213 198 197 202 212 205 199 201 196 196 191 193 193 196 201 194 216 202 196 204 207 233 190 186 210 223 223 247 229 208 207 171 235 285 300 226 230 183 286 303 272 262 293 259 266 281 294
199 202 205 200 209 201 191 192 203 216 204 206 200 197 193 192 192 195 196 199 207 217 233 222 202 200 217 205 219 220 223 233 221 231 207 162 260 187 230 258 218 188 122 319 251 330 318 272 271 270 305 349
203 200 204 199 197 193 204 205 206 212 207 196 199 196 189 185 181 180 194 203 206 218 214 212 208 215 215 216 211 219 234 231 247 236 226 193 216 252 201 249 306 202 184 249 250 269 332 333 341 346 357 347
201 195 195 200 192 202 196 193 204 210 203 195 197 205 194 190 180 176 193 195 201 216 213 207 212 213 206 229 206 205 222 223 236 229 219 197 219 202 273 227 293 214 189 194 45 338 124 304 25 322 332 339
189 170 167 160 114 124 141 63 169 196 211 199 194 188 184 194 183 188 193 206 207 202 210 212 223 210 211 215 205 198 216 230 229 221 215 204 196 188 219 250 234 21 11 136 349 212 0 347 9 243 318 342
179 184 183 176 182 178 195 208 192 205 199 183 193 195 172 190 190 196 202 215 216 206 205 216 203 209 210 218 181 179 211 227 204 211 196 199 195 201 204 218 170 271 351 238 117 142 68 177 249 311 329 346
178 188 194 197 201 203 205 213 221 188 175 176 180 171 185 189 189 197 203 219 213 212 210 208 227 231 200 175 166 172 182 186 200 210 205 172 177 169 142 145 177 163 244 50 58 79 245 355 247 161 350 282